#timestamp,LO_Frequency,Hit,StdDev 
1658847615.2,286046999.8,N
1658847635.0,286047001.5,N
1658847635.9,286047001.5,N
1658847655.8,286047004.1,N
1658847675.6,286047003.3,N
1658847695.4,286047006.0,Y
1658847715.3,286047003.2,P
1658847735.1,286047005.1,P
1658847755.8,286047007.6,P
1658847775.7,286047005.6,N
1658847795.5,286047011.9,Y
1658847815.4,286047001.2,P
1658847835.2,286047000.9,N
1658847855.0,286046999.7,N
1658847855.9,286046999.7,N
1658847875.8,286047002.8,N
1658847895.6,286047002.2,N
1658847915.4,286047002.2,N
1658847935.3,286047001.4,N
1658847955.1,286047003.9,N
1658847975.9,286047004.0,N
1658847995.7,286047003.8,N
1658848015.5,286047003.7,N
1658848035.4,286047001.5,N
1658848055.2,286047002.3,N
1658848075.0,286047002.1,N
1658848075.9,286047002.1,N
1658848095.8,286047004.0,N
1658848115.6,286047004.2,N
1658848135.5,286047003.8,N
1658848155.3,286047003.7,N
1658848175.1,286047004.2,N
1658848195.9,286047004.3,N
1658848215.7,286047001.6,N
1658848235.5,286047003.7,N
1658848255.4,286047001.3,N
1658848275.2,286047004.3,Y
1658848295.1,286047000.1,P
1658848296.0,286047000.1,N
1658848315.8,286047002.8,N
1658848335.6,286047002.5,N
1658848355.5,286047004.4,Y
1658848375.3,286047002.4,P
1658848395.1,286047002.0,P
1658848415.9,286047002.2,P
1658848435.7,286047002.3,Y
1658848455.6,286047000.8,P
1658848475.4,286046998.5,N
1658848495.2,286046998.8,N
1658848515.1,286046996.9,N
1658848516.0,286046996.9,N
1658848535.8,286046996.8,N
1658848555.6,286046999.3,N
1658848575.5,286046996.6,N
1658848595.3,286046996.6,N
1658848615.2,286046999.1,N
1658848635.9,286046998.5,N
1658848655.7,286047000.8,N
1658848675.6,286047000.4,N
1658848695.4,286047000.2,N
1658848715.2,286047000.2,N
1658848735.1,286046999.7,N
1658848736.0,286046999.7,N
1658848755.8,286046999.9,N
1658848775.7,286047000.4,N
1658848795.5,286047002.8,N
1658848815.3,286047000.2,N
1658848835.2,286047000.9,N
1658848855.0,286047000.6,N
1658848855.9,286047000.6,N
1658848875.8,286047000.5,N
1658848895.6,286046998.5,N
1658848915.4,286047001.0,N
1658848935.3,286047001.1,N
1658848955.1,286046999.4,N
1658848975.8,286046999.5,N
1658848995.7,286046998.4,N
1658849015.5,286046998.5,N
1658849035.3,286046998.5,N
1658849055.2,286046998.6,N
1658849075.0,286047001.2,N
1658849075.9,286047001.2,N
1658849095.8,286046998.6,N
1658849115.6,286047000.3,N
1658849135.4,286047000.6,N
1658849155.3,286047000.3,N
1658849175.1,286047000.4,N
1658849195.8,286047002.8,N
1658849215.7,286047000.2,N
1658849235.5,286047000.5,N
1658849255.4,286047000.2,N
1658849275.2,286046999.9,N
1658849295.0,286047000.7,N
1658849295.9,286047000.7,N
1658849315.8,286046999.9,N
1658849335.6,286047001.2,N
1658849355.4,286046998.4,N
1658849375.3,286046998.9,N
1658849395.1,286046999.2,N
1658849415.9,286046999.6,N
1658849435.7,286046999.2,N
1658849455.5,286047011.9,Y
1658849475.4,286047001.2,P
1658849495.2,286047001.0,N
1658849515.0,286047000.8,N
1658849515.9,286047000.8,N
1658849535.8,286047000.9,N
1658849555.6,286047001.0,N
1658849575.5,286046998.9,N
1658849595.3,286046999.3,N
1658849615.1,286046996.5,Y
1658849635.9,286046996.5,P
1658849655.7,286046998.9,N
1658849675.5,286046998.7,N
1658849695.4,286046996.5,N
1658849715.2,286046997.0,N
1658849735.1,286046999.5,N
1658849736.0,286046999.5,N
1658849755.8,286046999.1,N
1658849775.6,286046998.9,N
1658849795.5,286047001.1,N
1658849815.3,286047000.5,N
1658849835.1,286047000.2,N
1658849855.9,286047000.1,N
1658849875.7,286047000.6,N
1658849895.6,286047000.4,N
1658849915.4,286046998.8,N
1658849935.2,286046998.9,N
1658849955.1,286046998.3,N
1658849956.0,286046998.3,N
1658849975.8,286047001.2,N
1658849995.6,286046998.1,N
1658850015.5,286047000.7,N
1658850035.3,286046998.2,N
1658850055.2,286047001.1,N
1658850075.9,286047000.7,N
1658850095.7,286047001.0,N
1658850115.6,286047000.2,N
1658850135.4,286047002.8,N
1658850155.2,286047002.2,N
1658850175.1,286047002.5,N
1658850176.0,286047002.5,N
1658850195.8,286047002.4,N
1658850215.7,286047011.9,Y
1658850235.5,286047002.6,P
1658850255.3,286047002.7,N
1658850275.2,286047001.9,N
1658850295.0,286047001.6,N
1658850295.9,286047001.6,N
1658850315.8,286047001.3,N
1658850335.6,286047004.3,Y
1658850355.4,286047002.7,P
1658850375.3,286047002.3,P
1658850395.1,286047002.7,P
1658850415.9,286047002.4,Y
1658850435.7,286046998.5,P
1658850455.5,286047001.1,N
1658850475.4,286046998.1,N
1658850495.2,286046998.7,N
1658850515.0,286046998.1,N
1658850515.9,286046998.1,N
1658850535.8,286046998.3,N
1658850555.6,286046998.1,N
1658850575.5,286046998.1,N
1658850595.3,286047006.3,Y
1658850615.1,286047005.6,P
1658850635.9,286047003.9,N
1658850655.7,286047001.8,N
1658850675.6,286046999.8,N
1658850695.4,286046998.4,N
1658850715.2,286046999.2,N
1658850735.1,286046996.6,N
1658850736.0,286046996.6,N
1658850755.8,286046997.1,N
1658850775.6,286046994.9,N
1658850795.5,286046995.2,N
1658850815.3,286046998.0,N
1658850835.2,286046995.0,N
1658850855.9,286046997.3,N
1658850875.7,286046996.7,N
1658850895.6,286046997.8,N
1658850915.4,286046994.9,N
1658850935.3,286046996.8,N
1658850955.1,286046996.7,N
1658850956.0,286046996.7,N
1658850975.8,286046996.5,N
1658850995.7,286046997.3,N
1658851015.5,286046997.3,N
1658851035.3,286046997.0,N
1658851055.2,286046996.6,N
1658851075.0,286046999.5,N
1658851075.9,286046999.5,N
1658851095.8,286046998.5,N
1658851115.6,286046998.8,N
1658851135.4,286046996.6,N
1658851155.3,286046998.1,N
1658851175.1,286046998.6,N
1658851195.8,286046998.2,N
